Time,TemperatureF,DewpointF,PressureIn,WindDirection,WindDirectionDegrees,WindSpeedMPH,WindSpeedGustMPH,Humidity,HourlyPrecipIn,Conditions,Clouds,dailyrainin,SoftwareType,DateUTC
2013-09-09 00:01:00,68.2,44.8,29.78,North,0,0.0,0.0,43,0.00,,,0.00,WUHU216HW,2013-09-09 07:01:00,
2013-09-09 00:06:00,68.0,44.7,29.78,North,0,0.0,0.0,43,0.00,,,0.00,WUHU216HW,2013-09-09 07:06:00,
2013-09-09 00:11:00,67.7,44.9,29.78,North,0,0.0,0.0,44,0.00,,,0.00,WUHU216HW,2013-09-09 07:11:00,
2013-09-09 00:16:00,67.5,44.7,29.78,North,0,0.0,0.0,44,0.00,,,0.00,WUHU216HW,2013-09-09 07:16:00,
2013-09-09 00:21:00,67.3,45.2,29.78,North,0,0.0,0.0,45,0.00,,,0.00,WUHU216HW,2013-09-09 07:21:00,
2013-09-09 00:26:00,67.3,45.2,29.78,North,0,0.0,0.0,45,0.00,,,0.00,WUHU216HW,2013-09-09 07:26:00,
2013-09-09 00:31:00,67.1,45.6,29.78,North,0,0.0,0.0,46,0.00,,,0.00,WUHU216HW,2013-09-09 07:31:00,
2013-09-09 00:36:00,67.1,45.6,29.78,North,0,0.0,0.0,46,0.00,,,0.00,WUHU216HW,2013-09-09 07:36:00,
2013-09-09 00:41:00,67.0,45.5,29.78,North,0,0.0,0.0,46,0.00,,,0.00,WUHU216HW,2013-09-09 07:41:00,
2013-09-09 00:46:00,67.0,45.5,29.78,North,0,0.0,0.0,46,0.00,,,0.00,WUHU216HW,2013-09-09 07:46:00,
2013-09-09 00:51:00,66.8,45.9,29.78,North,0,0.0,0.0,47,0.00,,,0.00,WUHU216HW,2013-09-09 07:51:00,
2013-09-09 00:56:00,66.4,45.5,29.78,North,0,0.0,0.0,47,0.00,,,0.00,WUHU216HW,2013-09-09 07:56:00,
2013-09-09 01:01:00,66.2,45.4,29.78,North,0,0.0,0.0,47,0.00,,,0.00,WUHU216HW,2013-09-09 08:01:00,
2013-09-09 01:06:00,66.1,45.2,29.78,North,0,0.0,0.0,47,0.00,,,0.00,WUHU216HW,2013-09-09 08:06:00,
2013-09-09 01:11:00,65.9,45.0,29.78,North,0,0.0,0.0,47,0.00,,,0.00,WUHU216HW,2013-09-09 08:11:00,
2013-09-09 01:16:00,65.5,44.6,29.78,North,0,0.0,0.0,47,0.00,,,0.00,WUHU216HW,2013-09-09 08:16:00,
2013-09-09 01:21:00,65.5,44.6,29.78,North,0,0.0,0.0,47,0.00,,,0.00,WUHU216HW,2013-09-09 08:21:00,
2013-09-09 01:26:00,65.2,44.9,29.78,North,0,0.0,0.0,48,0.00,,,0.00,WUHU216HW,2013-09-09 08:26:00,
2013-09-09 01:31:00,65.0,44.7,29.78,North,0,0.0,0.0,48,0.00,,,0.00,WUHU216HW,2013-09-09 08:31:00,
2013-09-09 01:36:00,64.8,44.6,29.78,North,0,0.0,0.0,48,0.00,,,0.00,WUHU216HW,2013-09-09 08:36:00,
2013-09-09 01:41:00,64.8,46.2,29.78,North,0,0.0,0.0,51,0.00,,,0.00,WUHU216HW,2013-09-09 08:41:00,
2013-09-09 01:46:00,64.6,45.5,29.78,North,0,0.0,0.0,50,0.00,,,0.00,WUHU216HW,2013-09-09 08:46:00,
2013-09-09 01:51:00,64.4,45.4,29.78,North,0,0.0,0.0,50,0.00,,,0.00,WUHU216HW,2013-09-09 08:51:00,
2013-09-09 01:56:00,64.4,45.4,29.78,North,0,0.0,0.0,50,0.00,,,0.00,WUHU216HW,2013-09-09 08:56:00,
2013-09-09 02:01:00,64.3,45.2,29.78,North,0,0.0,0.0,50,0.00,,,0.00,WUHU216HW,2013-09-09 09:01:00,
2013-09-09 02:06:00,64.1,45.0,29.78,North,0,0.0,0.0,50,0.00,,,0.00,WUHU216HW,2013-09-09 09:06:00,
2013-09-09 02:11:00,63.9,45.4,29.78,North,0,0.0,0.0,51,0.00,,,0.00,WUHU216HW,2013-09-09 09:11:00,
2013-09-09 02:16:00,63.7,45.2,29.78,North,0,0.0,0.0,51,0.00,,,0.00,WUHU216HW,2013-09-09 09:16:00,
2013-09-09 02:21:00,63.5,45.0,29.78,North,0,0.0,0.0,51,0.00,,,0.00,WUHU216HW,2013-09-09 09:21:00,
2013-09-09 02:26:00,63.4,44.9,29.77,North,0,0.0,0.0,51,0.00,,,0.00,WUHU216HW,2013-09-09 09:26:00,
2013-09-09 02:31:00,63.2,44.7,29.77,North,0,0.0,0.0,51,0.00,,,0.00,WUHU216HW,2013-09-09 09:31:00,
2013-09-09 02:36:00,63.0,45.0,29.77,North,0,0.0,0.0,52,0.00,,,0.00,WUHU216HW,2013-09-09 09:36:00,
2013-09-09 02:41:00,63.0,45.0,29.77,North,0,0.0,0.0,52,0.00,,,0.00,WUHU216HW,2013-09-09 09:41:00,
2013-09-09 02:46:00,62.8,44.9,29.77,North,0,0.0,0.0,52,0.00,,,0.00,WUHU216HW,2013-09-09 09:46:00,
2013-09-09 02:51:00,62.6,44.7,29.77,North,0,0.0,0.0,52,0.00,,,0.00,WUHU216HW,2013-09-09 09:51:00,
2013-09-09 02:56:00,62.5,45.0,29.77,North,0,0.0,0.0,53,0.00,,,0.00,WUHU216HW,2013-09-09 09:56:00,
2013-09-09 03:01:00,62.3,44.9,29.77,North,0,0.0,0.0,53,0.00,,,0.00,WUHU216HW,2013-09-09 10:01:00,
2013-09-09 03:06:00,62.3,44.9,29.77,North,0,0.0,0.0,53,0.00,,,0.00,WUHU216HW,2013-09-09 10:06:00,
2013-09-09 03:11:00,62.3,44.9,29.77,North,0,0.0,0.0,53,0.00,,,0.00,WUHU216HW,2013-09-09 10:11:00,
2013-09-09 03:16:00,62.3,44.9,29.77,North,0,0.0,0.0,53,0.00,,,0.00,WUHU216HW,2013-09-09 10:16:00,
2013-09-09 03:21:00,62.1,44.7,29.77,North,0,0.0,0.0,53,0.00,,,0.00,WUHU216HW,2013-09-09 10:21:00,
2013-09-09 03:26:00,61.9,44.6,29.77,North,0,0.0,0.0,53,0.00,,,0.00,WUHU216HW,2013-09-09 10:26:00,
2013-09-09 03:31:00,61.9,44.6,29.77,North,0,0.0,0.0,53,0.00,,,0.00,WUHU216HW,2013-09-09 10:31:00,
2013-09-09 03:36:00,61.7,44.4,29.76,North,0,0.0,0.0,53,0.00,,,0.00,WUHU216HW,2013-09-09 10:36:00,
2013-09-09 03:41:00,61.6,44.7,29.76,North,0,0.0,0.0,54,0.00,,,0.00,WUHU216HW,2013-09-09 10:41:00,
2013-09-09 03:46:00,61.6,44.7,29.76,North,0,0.0,0.0,54,0.00,,,0.00,WUHU216HW,2013-09-09 10:46:00,
2013-09-09 03:51:00,61.6,44.7,29.76,North,0,0.0,0.0,54,0.00,,,0.00,WUHU216HW,2013-09-09 10:51:00,
2013-09-09 03:56:00,61.4,44.6,29.76,North,0,0.0,0.0,54,0.00,,,0.00,WUHU216HW,2013-09-09 10:56:00,
2013-09-09 04:01:00,61.4,44.6,29.76,North,0,0.0,0.0,54,0.00,,,0.00,WUHU216HW,2013-09-09 11:01:00,
2013-09-09 04:06:00,61.2,45.4,29.76,North,0,0.0,0.0,56,0.00,,,0.00,WUHU216HW,2013-09-09 11:06:00,
2013-09-09 04:11:00,61.2,45.4,29.76,North,0,0.0,0.0,56,0.00,,,0.00,WUHU216HW,2013-09-09 11:11:00,
2013-09-09 04:16:00,61.2,44.9,29.76,North,0,0.0,0.0,55,0.00,,,0.00,WUHU216HW,2013-09-09 11:16:00,
2013-09-09 04:21:00,61.0,44.7,29.76,North,0,0.0,0.0,55,0.00,,,0.00,WUHU216HW,2013-09-09 11:21:00,
2013-09-09 04:26:00,61.0,45.2,29.76,North,0,0.0,0.0,56,0.00,,,0.00,WUHU216HW,2013-09-09 11:26:00,
2013-09-09 04:31:00,60.8,45.0,29.76,North,0,0.0,0.0,56,0.00,,,0.00,WUHU216HW,2013-09-09 11:31:00,
2013-09-09 04:36:00,60.8,45.0,29.76,North,0,0.0,0.0,56,0.00,,,0.00,WUHU216HW,2013-09-09 11:36:00,
2013-09-09 04:41:00,60.8,45.6,29.76,North,0,0.0,0.0,57,0.00,,,0.00,WUHU216HW,2013-09-09 11:41:00,
2013-09-09 04:46:00,60.7,45.4,29.76,North,0,0.0,0.0,57,0.00,,,0.00,WUHU216HW,2013-09-09 11:46:00,
2013-09-09 04:51:00,60.7,45.4,29.76,North,0,0.0,0.0,57,0.00,,,0.00,WUHU216HW,2013-09-09 11:51:00,
2013-09-09 04:56:00,60.7,45.4,29.76,North,0,0.0,0.0,57,0.00,,,0.00,WUHU216HW,2013-09-09 11:56:00,
2013-09-09 05:01:00,60.7,45.4,29.76,North,0,0.0,0.0,57,0.00,,,0.00,WUHU216HW,2013-09-09 12:01:00,
2013-09-09 05:06:00,60.7,45.4,29.76,North,0,0.0,0.0,57,0.00,,,0.00,WUHU216HW,2013-09-09 12:06:00,
2013-09-09 06:04:00,58.7,43.5,29.78,North,0,0.0,0.0,57,0.00,,,0.00,WUHU216HW,2013-09-09 13:04:00,
2013-09-09 06:09:00,58.7,43.9,29.78,North,0,0.0,0.0,58,0.00,,,0.00,WUHU216HW,2013-09-09 13:09:00,
2013-09-09 06:14:00,58.7,43.9,29.78,North,0,0.0,0.0,58,0.00,,,0.00,WUHU216HW,2013-09-09 13:14:00,
2013-09-09 06:19:00,58.5,43.7,29.78,North,0,0.0,0.0,58,0.00,,,0.00,WUHU216HW,2013-09-09 13:19:00,
2013-09-09 06:24:00,58.5,43.7,29.78,North,0,0.0,0.0,58,0.00,,,0.00,WUHU216HW,2013-09-09 13:24:00,
2013-09-09 06:29:00,58.3,43.6,29.78,North,0,0.0,0.0,58,0.00,,,0.00,WUHU216HW,2013-09-09 13:29:00,
2013-09-09 06:34:00,58.1,43.5,29.78,North,0,0.0,0.0,58,0.00,,,0.00,WUHU216HW,2013-09-09 13:34:00,
2013-09-09 06:39:00,58.0,43.3,29.78,North,0,0.0,0.0,58,0.00,,,0.00,WUHU216HW,2013-09-09 13:39:00,
2013-09-09 06:44:00,58.0,43.7,29.78,North,0,0.0,0.0,59,0.00,,,0.00,WUHU216HW,2013-09-09 13:44:00,
2013-09-09 06:49:00,58.0,43.7,29.78,North,0,0.0,0.0,59,0.00,,,0.00,WUHU216HW,2013-09-09 13:49:00,
2013-09-09 06:54:00,57.8,43.6,29.78,North,0,0.0,0.0,59,0.00,,,0.00,WUHU216HW,2013-09-09 13:54:00,
2013-09-09 06:59:00,57.8,43.6,29.78,North,0,0.0,0.0,59,0.00,,,0.00,WUHU216HW,2013-09-09 13:59:00,
2013-09-09 07:04:00,57.8,43.1,29.78,North,0,0.0,0.0,58,0.00,,,0.00,WUHU216HW,2013-09-09 14:04:00,
2013-09-09 07:09:00,58.0,43.7,29.78,North,0,0.0,0.0,59,0.00,,,0.00,WUHU216HW,2013-09-09 14:09:00,
2013-09-09 07:14:00,58.0,43.7,29.78,North,0,0.0,0.0,59,0.00,,,0.00,WUHU216HW,2013-09-09 14:14:00,
2013-09-09 07:19:00,58.0,43.3,29.79,North,0,0.0,0.0,58,0.00,,,0.00,WUHU216HW,2013-09-09 14:19:00,
2013-09-09 07:24:00,58.0,43.7,29.79,North,0,0.0,0.0,59,0.00,,,0.00,WUHU216HW,2013-09-09 14:24:00,
2013-09-09 07:29:00,58.3,44.1,29.79,North,0,0.0,0.0,59,0.00,,,0.00,WUHU216HW,2013-09-09 14:29:00,
2013-09-09 07:34:00,58.5,44.7,29.79,North,0,0.0,0.0,60,0.00,,,0.00,WUHU216HW,2013-09-09 14:34:00,
2013-09-09 07:39:00,59.0,45.6,29.79,North,0,0.0,0.0,61,0.00,,,0.00,WUHU216HW,2013-09-09 14:39:00,
2013-09-09 07:44:00,59.4,46.0,29.79,North,0,0.0,0.0,61,0.00,,,0.00,WUHU216HW,2013-09-09 14:44:00,
2013-09-09 07:49:00,59.6,46.2,29.80,North,0,0.0,0.0,61,0.00,,,0.00,WUHU216HW,2013-09-09 14:49:00,
2013-09-09 07:54:00,60.5,47.4,29.80,North,0,0.0,0.0,62,0.00,,,0.00,WUHU216HW,2013-09-09 14:54:00,
2013-09-09 07:59:00,60.8,47.8,29.80,North,0,0.0,0.0,62,0.00,,,0.00,WUHU216HW,2013-09-09 14:59:00,
2013-09-09 08:04:00,61.4,48.3,29.80,North,0,0.0,0.0,62,0.00,,,0.00,WUHU216HW,2013-09-09 15:04:00,
2013-09-09 08:09:00,62.3,49.2,29.80,ESE,113,0.9,1.1,62,0.00,,,0.00,WUHU216HW,2013-09-09 15:09:00,
2013-09-09 08:14:00,63.0,49.8,29.80,North,0,0.0,1.1,62,0.00,,,0.00,WUHU216HW,2013-09-09 15:14:00,
2013-09-09 08:19:00,63.2,50.0,29.80,North,0,0.0,0.9,62,0.00,,,0.00,WUHU216HW,2013-09-09 15:19:00,
2013-09-09 08:24:00,64.1,49.9,29.80,North,0,0.0,0.0,60,0.00,,,0.00,WUHU216HW,2013-09-09 15:24:00,
2013-09-09 08:29:00,64.8,50.6,29.80,North,0,0.0,0.0,60,0.00,,,0.00,WUHU216HW,2013-09-09 15:29:00,
2013-09-09 08:34:00,65.2,50.9,29.80,North,0,0.0,0.0,60,0.00,,,0.00,WUHU216HW,2013-09-09 15:34:00,
2013-09-09 08:39:00,65.7,51.0,29.80,North,0,0.0,0.0,59,0.00,,,0.00,WUHU216HW,2013-09-09 15:39:00,
2013-09-09 08:44:00,66.2,51.0,29.80,North,0,0.0,0.0,58,0.00,,,0.00,WUHU216HW,2013-09-09 15:44:00,
2013-09-09 08:49:00,66.8,51.0,29.80,North,0,0.0,0.0,57,0.00,,,0.00,WUHU216HW,2013-09-09 15:49:00,
2013-09-09 08:54:00,67.1,51.4,29.80,North,0,0.0,0.0,57,0.00,,,0.00,WUHU216HW,2013-09-09 15:54:00,
2013-09-09 08:59:00,67.7,51.4,29.80,North,0,0.0,0.0,56,0.00,,,0.00,WUHU216HW,2013-09-09 15:59:00,
2013-09-09 09:04:00,68.0,51.7,29.80,North,0,0.0,0.0,56,0.00,,,0.00,WUHU216HW,2013-09-09 16:04:00,
2013-09-09 09:09:00,68.4,52.0,29.80,North,0,0.0,0.0,56,0.00,,,0.00,WUHU216HW,2013-09-09 16:09:00,
2013-09-09 09:14:00,69.1,51.8,29.80,North,0,0.0,0.0,54,0.00,,,0.00,WUHU216HW,2013-09-09 16:14:00,
2013-09-09 09:19:00,69.5,52.1,29.80,North,0,0.0,0.0,54,0.00,,,0.00,WUHU216HW,2013-09-09 16:19:00,
2013-09-09 09:24:00,69.8,51.9,29.80,North,0,0.0,0.0,53,0.00,,,0.00,WUHU216HW,2013-09-09 16:24:00,
2013-09-09 09:29:00,70.2,52.7,29.80,North,0,0.0,0.0,54,0.00,,,0.00,WUHU216HW,2013-09-09 16:29:00,
2013-09-09 09:34:00,70.6,52.6,29.80,North,0,0.0,0.0,53,0.00,,,0.00,WUHU216HW,2013-09-09 16:34:00,
2013-09-09 09:39:00,71.1,52.6,29.80,North,0,0.0,0.0,52,0.00,,,0.00,WUHU216HW,2013-09-09 16:39:00,
2013-09-09 09:44:00,72.0,52.4,29.80,North,0,0.0,0.0,50,0.00,,,0.00,WUHU216HW,2013-09-09 16:44:00,
2013-09-09 09:49:00,72.5,52.8,29.79,North,0,0.0,0.0,50,0.00,,,0.00,WUHU216HW,2013-09-09 16:49:00,
2013-09-09 09:54:00,72.7,52.4,29.79,North,0,0.0,0.0,49,0.00,,,0.00,WUHU216HW,2013-09-09 16:54:00,
2013-09-09 09:59:00,73.3,52.3,29.79,North,0,0.0,0.0,48,0.00,,,0.00,WUHU216HW,2013-09-09 16:59:00,
2013-09-09 10:04:00,73.8,52.2,29.80,North,0,0.0,0.0,47,0.00,,,0.00,WUHU216HW,2013-09-09 17:04:00,
2013-09-09 10:09:00,74.2,51.9,29.79,North,0,0.0,0.0,46,0.00,,,0.00,WUHU216HW,2013-09-09 17:09:00,
2013-09-09 10:14:00,74.7,51.8,29.79,North,0,0.0,0.0,45,0.00,,,0.00,WUHU216HW,2013-09-09 17:14:00,
2013-09-09 10:19:00,74.9,52.0,29.80,North,0,0.0,0.0,45,0.00,,,0.00,WUHU216HW,2013-09-09 17:19:00,
2013-09-09 10:24:00,75.6,52.8,29.79,North,0,0.0,0.0,45,0.00,,,0.00,WUHU216HW,2013-09-09 17:24:00,
2013-09-09 10:29:00,76.1,52.6,29.79,North,0,0.0,0.0,44,0.00,,,0.00,WUHU216HW,2013-09-09 17:29:00,
2013-09-09 10:34:00,76.5,52.3,29.79,North,0,0.0,0.0,43,0.00,,,0.00,WUHU216HW,2013-09-09 17:34:00,
2013-09-09 10:39:00,76.9,52.7,29.79,North,0,0.0,0.0,43,0.00,,,0.00,WUHU216HW,2013-09-09 17:39:00,
2013-09-09 10:44:00,77.8,52.8,29.79,North,0,0.0,0.0,42,0.00,,,0.00,WUHU216HW,2013-09-09 17:44:00,
2013-09-09 10:49:00,78.1,53.1,29.79,North,0,0.0,0.0,42,0.00,,,0.00,WUHU216HW,2013-09-09 17:49:00,
2013-09-09 10:54:00,78.8,53.2,29.79,North,0,0.0,0.0,41,0.00,,,0.00,WUHU216HW,2013-09-09 17:54:00,
2013-09-09 10:59:00,79.4,53.6,29.79,North,0,0.0,0.0,41,0.00,,,0.00,WUHU216HW,2013-09-09 17:59:00,
2013-09-09 11:04:00,79.6,53.8,29.79,North,0,0.0,0.0,41,0.00,,,0.00,WUHU216HW,2013-09-09 18:04:00,
2013-09-09 11:09:00,80.3,54.5,29.78,North,0,0.0,0.0,41,0.00,,,0.00,WUHU216HW,2013-09-09 18:09:00,
2013-09-09 11:14:00,81.0,54.6,29.78,North,0,0.0,0.0,40,0.00,,,0.00,WUHU216HW,2013-09-09 18:14:00,
2013-09-09 11:19:00,81.7,53.6,29.78,North,0,0.0,0.0,38,0.00,,,0.00,WUHU216HW,2013-09-09 18:19:00,
2013-09-09 11:24:00,82.1,53.9,29.78,North,0,0.0,0.0,38,0.00,,,0.00,WUHU216HW,2013-09-09 18:24:00,
2013-09-09 11:29:00,82.6,54.4,29.78,North,0,0.0,0.0,38,0.00,,,0.00,WUHU216HW,2013-09-09 18:29:00,
2013-09-09 11:34:00,83.5,53.7,29.78,North,0,0.0,0.0,36,0.00,,,0.00,WUHU216HW,2013-09-09 18:34:00,
2013-09-09 11:39:00,84.1,53.3,29.78,North,0,0.0,0.0,35,0.00,,,0.00,WUHU216HW,2013-09-09 18:39:00,
2013-09-09 11:44:00,84.6,51.4,29.78,North,0,0.0,0.0,32,0.00,,,0.00,WUHU216HW,2013-09-09 18:44:00,
2013-09-09 11:49:00,85.1,51.9,29.77,North,0,0.0,0.0,32,0.00,,,0.00,WUHU216HW,2013-09-09 18:49:00,
2013-09-09 11:54:00,85.7,52.4,29.77,North,0,0.0,0.0,32,0.00,,,0.00,WUHU216HW,2013-09-09 18:54:00,
2013-09-09 11:59:00,86.0,52.8,29.77,North,0,0.0,0.0,32,0.00,,,0.00,WUHU216HW,2013-09-09 18:59:00,
2013-09-09 12:04:00,86.2,52.8,29.77,North,0,0.0,0.0,32,0.00,,,0.00,WUHU216HW,2013-09-09 19:04:00,
2013-09-09 12:09:00,86.9,51.8,29.76,North,0,0.0,0.0,30,0.00,,,0.00,WUHU216HW,2013-09-09 19:09:00,
2013-09-09 12:14:00,87.5,50.1,29.76,North,0,0.0,0.0,28,0.00,,,0.00,WUHU216HW,2013-09-09 19:14:00,
2013-09-09 12:19:00,87.8,47.3,29.76,North,0,0.0,0.0,25,0.00,,,0.00,WUHU216HW,2013-09-09 19:19:00,
2013-09-09 12:24:00,88.4,51.0,29.76,North,0,0.0,0.0,28,0.00,,,0.00,WUHU216HW,2013-09-09 19:24:00,
2013-09-09 12:29:00,88.6,52.1,29.76,North,0,0.0,0.0,29,0.00,,,0.00,WUHU216HW,2013-09-09 19:29:00,
2013-09-09 12:34:00,89.3,49.6,29.76,North,0,0.0,0.0,26,0.00,,,0.00,WUHU216HW,2013-09-09 19:34:00,
2013-09-09 12:39:00,89.6,49.9,29.76,North,0,0.0,0.0,26,0.00,,,0.00,WUHU216HW,2013-09-09 19:39:00,
2013-09-09 12:44:00,90.0,46.9,29.76,North,0,0.0,0.0,23,0.00,,,0.00,WUHU216HW,2013-09-09 19:44:00,
2013-09-09 12:49:00,90.4,48.3,29.76,North,0,0.0,0.0,24,0.00,,,0.00,WUHU216HW,2013-09-09 19:49:00,
2013-09-09 12:54:00,90.5,49.5,29.75,North,0,0.0,0.0,25,0.00,,,0.00,WUHU216HW,2013-09-09 19:54:00,
2013-09-09 12:59:00,90.7,47.5,29.75,North,0,0.0,0.0,23,0.00,,,0.00,WUHU216HW,2013-09-09 19:59:00,
2013-09-09 13:04:00,90.9,47.7,29.75,North,0,0.0,0.0,23,0.00,,,0.00,WUHU216HW,2013-09-09 20:04:00,
2013-09-09 13:09:00,91.1,48.9,29.75,North,0,0.0,0.0,24,0.00,,,0.00,WUHU216HW,2013-09-09 20:09:00,
2013-09-09 13:14:00,91.8,49.5,29.74,North,0,0.0,0.0,24,0.00,,,0.00,WUHU216HW,2013-09-09 20:14:00,
2013-09-09 13:19:00,92.0,49.7,29.75,North,0,0.0,0.0,24,0.00,,,0.00,WUHU216HW,2013-09-09 20:19:00,
2013-09-09 13:24:00,92.7,50.2,29.74,North,0,0.0,0.0,24,0.00,,,0.00,WUHU216HW,2013-09-09 20:24:00,
2013-09-09 13:29:00,93.2,51.8,29.74,North,0,0.0,0.0,25,0.00,,,0.00,WUHU216HW,2013-09-09 20:29:00,
2013-09-09 13:34:00,93.4,49.7,29.73,North,0,0.0,0.0,23,0.00,,,0.00,WUHU216HW,2013-09-09 20:34:00,
2013-09-09 13:39:00,93.6,49.9,29.73,North,0,0.0,0.0,23,0.00,,,0.00,WUHU216HW,2013-09-09 20:39:00,
2013-09-09 13:44:00,93.6,49.9,29.73,North,0,0.0,0.0,23,0.00,,,0.00,WUHU216HW,2013-09-09 20:44:00,
2013-09-09 13:49:00,94.0,51.3,29.73,North,0,0.0,0.0,24,0.00,,,0.00,WUHU216HW,2013-09-09 20:49:00,
2013-09-09 13:54:00,94.1,51.4,29.73,North,0,0.0,0.0,24,0.00,,,0.00,WUHU216HW,2013-09-09 20:54:00,
2013-09-09 13:59:00,94.5,50.6,29.73,North,0,0.0,0.0,23,0.00,,,0.00,WUHU216HW,2013-09-09 20:59:00,
2013-09-09 14:04:00,94.7,51.8,29.73,North,0,0.0,0.0,24,0.00,,,0.00,WUHU216HW,2013-09-09 21:04:00,
2013-09-09 14:09:00,94.9,51.0,29.72,North,0,0.0,0.0,23,0.00,,,0.00,WUHU216HW,2013-09-09 21:09:00,
2013-09-09 14:14:00,94.9,51.0,29.72,North,0,0.0,0.0,23,0.00,,,0.00,WUHU216HW,2013-09-09 21:14:00,
2013-09-09 14:19:00,95.2,50.1,29.72,North,0,0.0,0.0,22,0.00,,,0.00,WUHU216HW,2013-09-09 21:19:00,
2013-09-09 14:24:00,95.4,51.4,29.72,North,0,0.0,0.0,23,0.00,,,0.00,WUHU216HW,2013-09-09 21:24:00,
2013-09-09 14:29:00,95.8,51.7,29.71,North,0,0.0,0.0,23,0.00,,,0.00,WUHU216HW,2013-09-09 21:29:00,
2013-09-09 14:34:00,96.1,52.0,29.71,North,0,0.0,0.0,23,0.00,,,0.00,WUHU216HW,2013-09-09 21:34:00,
2013-09-09 14:39:00,96.7,49.1,29.71,West,270,6.9,6.9,20,0.00,,,0.00,WUHU216HW,2013-09-09 21:39:00,
2013-09-09 14:44:00,96.7,49.1,29.71,SW,225,4.9,6.9,20,0.00,,,0.00,WUHU216HW,2013-09-09 21:44:00,
2013-09-09 14:49:00,96.5,47.2,29.71,North,0,0.0,4.9,19,0.00,,,0.00,WUHU216HW,2013-09-09 21:49:00,
2013-09-09 14:54:00,96.3,48.9,29.71,North,0,0.0,4.9,20,0.00,,,0.00,WUHU216HW,2013-09-09 21:54:00,
2013-09-09 14:59:00,96.5,51.2,29.70,North,0,0.0,0.0,22,0.00,,,0.00,WUHU216HW,2013-09-09 21:59:00,
2013-09-09 15:04:00,96.5,52.3,29.70,North,0,0.0,0.0,23,0.00,,,0.00,WUHU216HW,2013-09-09 22:04:00,
2013-09-09 15:09:00,96.8,52.7,29.70,North,0,0.0,0.0,23,0.00,,,0.00,WUHU216HW,2013-09-09 22:09:00,
2013-09-09 15:14:00,97.0,51.7,29.70,North,0,0.0,0.0,22,0.00,,,0.00,WUHU216HW,2013-09-09 22:14:00,
2013-09-09 15:19:00,97.0,51.7,29.70,North,0,0.0,0.0,22,0.00,,,0.00,WUHU216HW,2013-09-09 22:19:00,
2013-09-09 15:24:00,97.2,51.9,29.69,North,0,0.0,0.0,22,0.00,,,0.00,WUHU216HW,2013-09-09 22:24:00,
2013-09-09 15:29:00,97.4,51.9,29.69,North,0,0.0,0.0,22,0.00,,,0.00,WUHU216HW,2013-09-09 22:29:00,
2013-09-09 15:34:00,97.4,51.9,29.69,North,0,0.0,0.0,22,0.00,,,0.00,WUHU216HW,2013-09-09 22:34:00,
2013-09-09 15:39:00,97.4,51.9,29.69,North,0,0.0,0.0,22,0.00,,,0.00,WUHU216HW,2013-09-09 22:39:00,
2013-09-09 15:44:00,97.6,53.2,29.69,North,0,0.0,0.0,23,0.00,,,0.00,WUHU216HW,2013-09-09 22:44:00,
2013-09-09 15:49:00,97.6,53.2,29.69,North,0,0.0,0.0,23,0.00,,,0.00,WUHU216HW,2013-09-09 22:49:00,
2013-09-09 15:54:00,97.7,53.4,29.69,North,0,0.0,0.0,23,0.00,,,0.00,WUHU216HW,2013-09-09 22:54:00,
2013-09-09 15:59:00,97.7,53.4,29.69,North,0,0.0,0.0,23,0.00,,,0.00,WUHU216HW,2013-09-09 22:59:00,
2013-09-09 16:04:00,97.6,53.2,29.69,North,0,0.0,0.0,23,0.00,,,0.00,WUHU216HW,2013-09-09 23:04:00,
2013-09-09 16:09:00,97.4,53.1,29.69,West,270,5.4,5.4,23,0.00,,,0.00,WUHU216HW,2013-09-09 23:09:00,
2013-09-09 16:14:00,97.2,52.9,29.69,North,0,0.0,5.4,23,0.00,,,0.00,WUHU216HW,2013-09-09 23:14:00,
2013-09-09 16:19:00,97.6,53.2,29.69,North,0,0.0,5.4,23,0.00,,,0.00,WUHU216HW,2013-09-09 23:19:00,
2013-09-09 16:24:00,97.6,53.2,29.69,North,0,0.0,0.0,23,0.00,,,0.00,WUHU216HW,2013-09-09 23:24:00,
2013-09-09 16:29:00,97.4,53.1,29.68,North,0,0.0,0.0,23,0.00,,,0.00,WUHU216HW,2013-09-09 23:29:00,
2013-09-09 16:34:00,97.2,52.9,29.69,North,0,0.0,0.0,23,0.00,,,0.00,WUHU216HW,2013-09-09 23:34:00,
2013-09-09 16:39:00,97.0,52.7,29.69,North,0,0.0,0.0,23,0.00,,,0.00,WUHU216HW,2013-09-09 23:39:00,
2013-09-09 16:44:00,96.8,51.5,29.69,North,0,0.0,0.0,22,0.00,,,0.00,WUHU216HW,2013-09-09 23:44:00,
2013-09-09 16:49:00,96.7,51.4,29.69,North,0,0.0,0.0,22,0.00,,,0.00,WUHU216HW,2013-09-09 23:49:00,
2013-09-09 16:54:00,96.5,51.2,29.69,North,0,0.0,0.0,22,0.00,,,0.00,WUHU216HW,2013-09-09 23:54:00,
2013-09-09 16:59:00,96.1,50.9,29.69,North,0,0.0,0.0,22,0.00,,,0.00,WUHU216HW,2013-09-09 23:59:00,
2013-09-09 17:04:00,95.8,50.6,29.69,North,0,0.0,0.0,22,0.00,,,0.00,WUHU216HW,2013-09-10 00:04:00,
2013-09-09 17:09:00,95.2,50.1,29.69,North,0,0.0,0.0,22,0.00,,,0.00,WUHU216HW,2013-09-10 00:09:00,
2013-09-09 17:14:00,94.9,48.7,29.69,North,0,0.0,0.0,21,0.00,,,0.00,WUHU216HW,2013-09-10 00:14:00,
2013-09-09 17:19:00,94.5,48.4,29.69,North,0,0.0,0.0,21,0.00,,,0.00,WUHU216HW,2013-09-10 00:19:00,
2013-09-09 17:24:00,93.8,50.1,29.69,North,0,0.0,0.0,23,0.00,,,0.00,WUHU216HW,2013-09-10 00:24:00,
2013-09-09 17:29:00,93.6,49.9,29.69,North,0,0.0,0.0,23,0.00,,,0.00,WUHU216HW,2013-09-10 00:29:00,
2013-09-09 17:34:00,92.9,50.4,29.70,North,0,0.0,0.0,24,0.00,,,0.00,WUHU216HW,2013-09-10 00:34:00,
2013-09-09 17:39:00,92.7,50.2,29.70,North,0,0.0,0.0,24,0.00,,,0.00,WUHU216HW,2013-09-10 00:39:00,
2013-09-09 17:44:00,92.0,49.7,29.70,North,0,0.0,0.0,24,0.00,,,0.00,WUHU216HW,2013-09-10 00:44:00,
2013-09-09 17:49:00,91.4,48.2,29.70,North,0,0.0,0.0,23,0.00,,,0.00,WUHU216HW,2013-09-10 00:49:00,
2013-09-09 17:54:00,91.1,47.8,29.70,North,0,0.0,0.0,23,0.00,,,0.00,WUHU216HW,2013-09-10 00:54:00,
2013-09-09 17:59:00,90.5,48.4,29.70,North,0,0.0,0.0,24,0.00,,,0.00,WUHU216HW,2013-09-10 00:59:00,
2013-09-09 18:04:00,90.4,47.3,29.70,North,0,0.0,0.0,23,0.00,,,0.00,WUHU216HW,2013-09-10 01:04:00,
2013-09-09 18:09:00,90.0,48.0,29.70,North,0,0.0,0.0,24,0.00,,,0.00,WUHU216HW,2013-09-10 01:09:00,
2013-09-09 18:14:00,89.6,48.8,29.70,North,0,0.0,0.0,25,0.00,,,0.00,WUHU216HW,2013-09-10 01:14:00,
2013-09-09 18:19:00,89.1,49.4,29.69,North,0,0.0,0.0,26,0.00,,,0.00,WUHU216HW,2013-09-10 01:19:00,
2013-09-09 18:24:00,88.7,49.1,29.69,North,0,0.0,0.0,26,0.00,,,0.00,WUHU216HW,2013-09-10 01:24:00,
2013-09-09 18:29:00,88.2,48.6,29.69,North,0,0.0,0.0,26,0.00,,,0.00,WUHU216HW,2013-09-10 01:29:00,
2013-09-09 18:34:00,87.8,48.3,29.69,North,0,0.0,0.0,26,0.00,,,0.00,WUHU216HW,2013-09-10 01:34:00,
2013-09-09 18:39:00,87.5,48.0,29.69,North,0,0.0,0.0,26,0.00,,,0.00,WUHU216HW,2013-09-10 01:39:00,
2013-09-09 18:44:00,86.8,47.4,29.69,North,0,0.0,0.0,26,0.00,,,0.00,WUHU216HW,2013-09-10 01:44:00,
2013-09-09 18:49:00,86.2,47.0,29.69,North,0,0.0,0.0,26,0.00,,,0.00,WUHU216HW,2013-09-10 01:49:00,
2013-09-09 18:54:00,86.0,46.8,29.69,North,0,0.0,0.0,26,0.00,,,0.00,WUHU216HW,2013-09-10 01:54:00,
2013-09-09 18:59:00,85.5,47.4,29.69,North,0,0.0,0.0,27,0.00,,,0.00,WUHU216HW,2013-09-10 01:59:00,
2013-09-09 19:04:00,85.0,45.9,29.70,North,0,0.0,0.0,26,0.00,,,0.00,WUHU216HW,2013-09-10 02:04:00,
2013-09-09 19:09:00,84.6,45.5,29.70,North,0,0.0,0.0,26,0.00,,,0.00,WUHU216HW,2013-09-10 02:09:00,
2013-09-09 19:14:00,84.1,45.1,29.69,North,0,0.0,0.0,26,0.00,,,0.00,WUHU216HW,2013-09-10 02:14:00,
2013-09-09 19:19:00,83.5,44.7,29.69,North,0,0.0,0.0,26,0.00,,,0.00,WUHU216HW,2013-09-10 02:19:00,
2013-09-09 19:24:00,83.2,43.3,29.69,North,0,0.0,0.0,25,0.00,,,0.00,WUHU216HW,2013-09-10 02:24:00,
2013-09-09 19:29:00,82.8,42.9,29.69,North,0,0.0,0.0,25,0.00,,,0.00,WUHU216HW,2013-09-10 02:29:00,
2013-09-09 19:34:00,82.1,42.4,29.70,North,0,0.0,0.0,25,0.00,,,0.00,WUHU216HW,2013-09-10 02:34:00,
2013-09-09 19:39:00,81.5,43.0,29.70,North,0,0.0,0.0,26,0.00,,,0.00,WUHU216HW,2013-09-10 02:39:00,
2013-09-09 19:44:00,81.0,42.6,29.70,North,0,0.0,0.0,26,0.00,,,0.00,WUHU216HW,2013-09-10 02:44:00,
2013-09-09 19:49:00,80.3,41.9,29.70,North,0,0.0,0.0,26,0.00,,,0.00,WUHU216HW,2013-09-10 02:49:00,
2013-09-09 19:54:00,79.9,41.6,29.70,North,0,0.0,0.0,26,0.00,,,0.00,WUHU216HW,2013-09-10 02:54:00,
2013-09-09 19:59:00,79.6,41.3,29.70,North,0,0.0,0.0,26,0.00,,,0.00,WUHU216HW,2013-09-10 02:59:00,
2013-09-09 20:04:00,79.0,41.9,29.70,North,0,0.0,0.0,27,0.00,,,0.00,WUHU216HW,2013-09-10 03:04:00,
2013-09-09 20:09:00,78.8,41.7,29.70,North,0,0.0,0.0,27,0.00,,,0.00,WUHU216HW,2013-09-10 03:09:00,
2013-09-09 20:14:00,78.7,40.5,29.70,North,0,0.0,0.0,26,0.00,,,0.00,WUHU216HW,2013-09-10 03:14:00,
2013-09-09 20:19:00,78.3,41.2,29.71,North,0,0.0,0.0,27,0.00,,,0.00,WUHU216HW,2013-09-10 03:19:00,
2013-09-09 20:24:00,78.1,40.1,29.71,North,0,0.0,0.0,26,0.00,,,0.00,WUHU216HW,2013-09-10 03:24:00,
2013-09-09 20:29:00,77.6,40.7,29.71,North,0,0.0,0.0,27,0.00,,,0.00,WUHU216HW,2013-09-10 03:29:00,
2013-09-09 20:34:00,77.4,41.6,29.71,North,0,0.0,0.0,28,0.00,,,0.00,WUHU216HW,2013-09-10 03:34:00,
2013-09-09 20:39:00,77.0,41.3,29.71,North,0,0.0,0.0,28,0.00,,,0.00,WUHU216HW,2013-09-10 03:39:00,
2013-09-09 20:44:00,76.7,41.0,29.72,North,0,0.0,0.0,28,0.00,,,0.00,WUHU216HW,2013-09-10 03:44:00,
2013-09-09 20:49:00,76.5,40.9,29.72,North,0,0.0,0.0,28,0.00,,,0.00,WUHU216HW,2013-09-10 03:49:00,
2013-09-09 20:54:00,76.3,41.7,29.72,North,0,0.0,0.0,29,0.00,,,0.00,WUHU216HW,2013-09-10 03:54:00,
2013-09-09 20:59:00,76.1,41.6,29.72,North,0,0.0,0.0,29,0.00,,,0.00,WUHU216HW,2013-09-10 03:59:00,
2013-09-09 21:01:00,76.1,41.6,29.72,North,0,0.0,0.0,29,0.00,,,0.00,WUHU216HW,2013-09-10 04:01:00,
2013-09-09 21:06:00,76.0,42.4,29.72,North,0,0.0,0.0,30,0.00,,,0.00,WUHU216HW,2013-09-10 04:06:00,
2013-09-09 21:11:00,75.8,42.2,29.72,North,0,0.0,0.0,30,0.00,,,0.00,WUHU216HW,2013-09-10 04:11:00,
2013-09-09 21:16:00,75.6,42.1,29.72,North,0,0.0,0.0,30,0.00,,,0.00,WUHU216HW,2013-09-10 04:16:00,
2013-09-09 21:21:00,75.2,41.8,29.73,North,0,0.0,0.0,30,0.00,,,0.00,WUHU216HW,2013-09-10 04:21:00,
2013-09-09 21:26:00,74.9,41.4,29.72,North,0,0.0,0.0,30,0.00,,,0.00,WUHU216HW,2013-09-10 04:26:00,
2013-09-09 21:31:00,74.7,42.0,29.73,North,0,0.0,0.0,31,0.00,,,0.00,WUHU216HW,2013-09-10 04:31:00,
2013-09-09 21:36:00,74.3,42.5,29.73,North,0,0.0,0.0,32,0.00,,,0.00,WUHU216HW,2013-09-10 04:36:00,
2013-09-09 21:41:00,74.2,43.0,29.73,North,0,0.0,0.0,33,0.00,,,0.00,WUHU216HW,2013-09-10 04:41:00,
2013-09-09 21:46:00,74.0,43.7,29.73,North,0,0.0,0.0,34,0.00,,,0.00,WUHU216HW,2013-09-10 04:46:00,
2013-09-09 21:51:00,73.8,43.5,29.73,North,0,0.0,0.0,34,0.00,,,0.00,WUHU216HW,2013-09-10 04:51:00,
2013-09-09 21:56:00,73.4,43.9,29.73,North,0,0.0,0.0,35,0.00,,,0.00,WUHU216HW,2013-09-10 04:56:00,
2013-09-09 22:01:00,73.3,43.7,29.73,North,0,0.0,0.0,35,0.00,,,0.00,WUHU216HW,2013-09-10 05:01:00,
2013-09-09 22:06:00,73.1,45.1,29.73,North,0,0.0,0.0,37,0.00,,,0.00,WUHU216HW,2013-09-10 05:06:00,
2013-09-09 22:11:00,72.7,44.8,29.73,North,0,0.0,0.0,37,0.00,,,0.00,WUHU216HW,2013-09-10 05:11:00,
2013-09-09 22:16:00,72.5,44.6,29.73,North,0,0.0,0.0,37,0.00,,,0.00,WUHU216HW,2013-09-10 05:16:00,
2013-09-09 22:21:00,72.2,45.1,29.73,North,0,0.0,0.0,38,0.00,,,0.00,WUHU216HW,2013-09-10 05:21:00,
2013-09-09 22:26:00,72.0,45.6,29.73,North,0,0.0,0.0,39,0.00,,,0.00,WUHU216HW,2013-09-10 05:26:00,
2013-09-09 22:31:00,71.8,46.3,29.73,West,270,2.0,2.0,40,0.00,,,0.00,WUHU216HW,2013-09-10 05:31:00,
2013-09-09 22:36:00,71.6,46.1,29.73,WNW,293,1.8,2.0,40,0.00,,,0.00,WUHU216HW,2013-09-10 05:36:00,
2013-09-09 22:41:00,71.3,45.7,29.73,WSW,248,1.6,2.5,40,0.00,,,0.00,WUHU216HW,2013-09-10 05:41:00,
2013-09-09 22:46:00,71.1,46.2,29.73,West,270,1.1,2.5,41,0.00,,,0.00,WUHU216HW,2013-09-10 05:46:00,
2013-09-09 22:51:00,70.7,45.9,29.73,North,0,0.0,1.6,41,0.00,,,0.00,WUHU216HW,2013-09-10 05:51:00,
2013-09-09 22:56:00,70.4,46.2,29.73,North,0,0.0,1.1,42,0.00,,,0.00,WUHU216HW,2013-09-10 05:56:00,
2013-09-09 23:01:00,70.2,46.0,29.73,North,0,0.0,0.0,42,0.00,,,0.00,WUHU216HW,2013-09-10 06:01:00,
2013-09-09 23:06:00,69.8,45.6,29.73,North,0,0.0,0.0,42,0.00,,,0.00,WUHU216HW,2013-09-10 06:06:00,
2013-09-09 23:11:00,69.5,45.9,29.73,North,0,0.0,0.0,43,0.00,,,0.00,WUHU216HW,2013-09-10 06:11:00,
2013-09-09 23:16:00,69.1,45.6,29.73,North,0,0.0,0.0,43,0.00,,,0.00,WUHU216HW,2013-09-10 06:16:00,
2013-09-09 23:21:00,68.8,45.3,29.73,North,0,0.0,0.0,43,0.00,,,0.00,WUHU216HW,2013-09-10 06:21:00,
2013-09-09 23:26:00,68.4,45.5,29.73,North,0,0.0,0.0,44,0.00,,,0.00,WUHU216HW,2013-09-10 06:26:00,
2013-09-09 23:31:00,68.0,45.2,29.73,North,0,0.0,0.0,44,0.00,,,0.00,WUHU216HW,2013-09-10 06:31:00,
2013-09-09 23:36:00,67.9,45.6,29.73,North,0,0.0,0.0,45,0.00,,,0.00,WUHU216HW,2013-09-10 06:36:00,
2013-09-09 23:41:00,67.3,45.7,29.73,North,0,0.0,0.0,46,0.00,,,0.00,WUHU216HW,2013-09-10 06:41:00,
2013-09-09 23:46:00,67.1,45.6,29.73,North,0,0.0,0.0,46,0.00,,,0.00,WUHU216HW,2013-09-10 06:46:00,
2013-09-09 23:51:00,67.0,45.5,29.73,North,0,0.0,0.0,46,0.00,,,0.00,WUHU216HW,2013-09-10 06:51:00,
2013-09-09 23:56:00,66.8,45.3,29.73,North,0,0.0,0.0,46,0.00,,,0.00,WUHU216HW,2013-09-10 06:56:00,